18-01-2023, 00:00:07,    255,    1.6,   -3.2,   0.00,   0.00,  992.4,   81.1, -999.0
18-01-2023, 00:00:16,    247,    1.4,   -3.1,   0.00,   0.00,  992.4,   81.0, -999.0
18-01-2023, 00:00:27,    215,    0.4,   -3.2,   0.00,   0.00,  992.4,   81.0, -999.0
18-01-2023, 00:00:37,    223,    0.2,   -3.2,   0.00,   0.00,  992.4,   80.9, -999.0
18-01-2023, 00:00:47,    230,    0.9,   -3.1,   0.00,   0.00,  992.4,   81.1, -999.0
18-01-2023, 00:00:56,    230,    0.2,   -3.2,   0.00,   0.00,  992.4,   81.1, -999.0
18-01-2023, 00:01:07,    281,    0.0,   -3.2,   0.00,   0.00,  992.3,   80.7, -999.0
18-01-2023, 00:01:17,    281,    0.0,   -3.2,   0.00,   0.00,  992.3,   80.7, -999.0
18-01-2023, 00:01:26,    268,    0.0,   -3.2,   0.00,   0.00,  992.3,   80.5, -999.0
18-01-2023, 00:01:36,    268,    0.0,   -3.2,   0.00,   0.00,  992.3,   80.4, -999.0
18-01-2023, 00:01:47,    268,    0.0,   -3.3,   0.00,   0.00,  992.3,   80.5, -999.0
18-01-2023, 00:01:56,    268,    0.0,   -3.3,   0.00,   0.00,  992.3,   80.4, -999.0
18-01-2023, 00:02:06,    268,    0.0,   -3.3,   0.00,   0.00,  992.3,   80.4, -999.0
18-01-2023, 00:02:17,    267,    0.0,   -3.5,   0.00,   0.00,  992.3,   80.4, -999.0
18-01-2023, 00:02:27,    268,    0.0,   -3.3,   0.00,   0.00,  992.3,   80.4, -999.0
18-01-2023, 00:02:36,    273,    0.0,   -3.3,   0.00,   0.00,  992.3,   80.4, -999.0
18-01-2023, 00:02:46,    273,    0.0,   -3.3,   0.00,   0.00,  992.3,   80.5, -999.0
18-01-2023, 00:02:57,    262,    0.5,   -3.3,   0.00,   0.00,  992.3,   80.5, -999.0
18-01-2023, 00:03:06,    289,    0.7,   -3.2,   0.00,   0.00,  992.4,   80.8, -999.0
18-01-2023, 00:03:16,    288,    0.1,   -3.3,   0.00,   0.00,  992.3,   80.6, -999.0
18-01-2023, 00:03:26,    288,    0.0,   -3.3,   0.00,   0.00,  992.3,   80.5, -999.0
18-01-2023, 00:03:36,    288,    0.0,   -3.3,   0.00,   0.00,  992.3,   80.4, -999.0
18-01-2023, 00:03:46,    288,    0.0,   -3.3,   0.00,   0.00,  992.3,   80.5, -999.0
18-01-2023, 00:03:56,    288,    0.0,   -3.4,   0.00,   0.00,  992.3,   80.5, -999.0
18-01-2023, 00:04:06,    288,    0.0,   -3.3,   0.00,   0.00,  992.3,   80.6, -999.0
18-01-2023, 00:04:16,    288,    0.0,   -3.3,   0.00,   0.00,  992.3,   80.5, -999.0
18-01-2023, 00:04:26,    288,    0.0,   -3.3,   0.00,   0.00,  992.4,   80.7, -999.0
18-01-2023, 00:04:36,    284,    0.0,   -3.3,   0.00,   0.00,  992.3,   80.5, -999.0
18-01-2023, 00:04:46,    250,    0.2,   -3.3,   0.00,   0.00,  992.4,   80.7, -999.0
18-01-2023, 00:04:56,    249,    0.8,   -3.3,   0.00,   0.00,  992.4,   80.8, -999.0
18-01-2023, 00:05:06,    249,    0.0,   -3.4,   0.00,   0.00,  992.3,   80.5, -999.0
18-01-2023, 00:05:16,    249,    0.0,   -3.3,   0.00,   0.00,  992.3,   80.6, -999.0
18-01-2023, 00:05:26,    249,    0.0,   -3.3,   0.00,   0.00,  992.3,   80.6, -999.0
18-01-2023, 00:05:36,    250,    0.0,   -3.3,   0.00,   0.00,  992.3,   80.6, -999.0
18-01-2023, 00:05:46,    250,    0.0,   -3.3,   0.00,   0.00,  992.3,   80.6, -999.0
18-01-2023, 00:05:56,    254,    0.6,   -3.3,   0.00,   0.00,  992.4,   80.8, -999.0
18-01-2023, 00:06:06,    253,    0.1,   -3.3,   0.00,   0.00,  992.3,   80.8, -999.0
18-01-2023, 00:06:16,    254,    0.1,   -3.3,   0.00,   0.00,  992.4,   80.7, -999.0
18-01-2023, 00:06:26,    254,    0.0,   -3.3,   0.00,   0.00,  992.3,   80.6, -999.0
18-01-2023, 00:06:36,    254,    0.0,   -3.3,   0.00,   0.00,  992.3,   80.8, -999.0
18-01-2023, 00:06:46,    283,    0.0,   -3.3,   0.00,   0.00,  992.3,   80.7, -999.0
18-01-2023, 00:06:56,    255,    1.1,   -3.1,   0.00,   0.00,  992.4,   80.9, -999.0
18-01-2023, 00:07:06,    251,    0.3,   -3.2,   0.00,   0.00,  992.4,   81.0, -999.0
18-01-2023, 00:07:16,    256,    0.0,   -3.3,   0.00,   0.00,  992.3,   80.8, -999.0
18-01-2023, 00:07:26,    271,    0.7,   -3.2,   0.00,   0.00,  992.4,   81.0, -999.0
18-01-2023, 00:07:36,    273,    0.6,   -3.2,   0.00,   0.00,  992.4,   81.1, -999.0
18-01-2023, 00:07:46,    269,    0.4,   -3.1,   0.00,   0.00,  992.4,   81.0, -999.0
18-01-2023, 00:07:56,    222,    0.2,   -3.2,   0.00,   0.00,  992.4,   80.8, -999.0
18-01-2023, 00:08:06,    236,    0.1,   -3.3,   0.00,   0.00,  992.4,   80.8, -999.0
18-01-2023, 00:08:16,    239,    0.2,   -3.4,   0.00,   0.00,  992.4,   80.9, -999.0
18-01-2023, 00:08:26,    254,    0.7,   -3.2,   0.00,   0.00,  992.5,   81.0, -999.0
18-01-2023, 00:08:36,    245,    1.7,   -3.1,   0.00,   0.00,  992.4,   81.1, -999.0
18-01-2023, 00:08:46,    245,    0.6,   -3.1,   0.00,   0.00,  992.5,   81.1, -999.0
18-01-2023, 00:08:56,    245,    0.0,   -3.3,   0.00,   0.00,  992.4,   80.8, -999.0
18-01-2023, 00:09:06,    245,    0.0,   -3.3,   0.00,   0.00,  992.4,   80.9, -999.0
18-01-2023, 00:09:15,    245,    0.0,   -3.2,   0.00,   0.00,  992.4,   80.8, -999.0
18-01-2023, 00:09:26,    291,    1.4,   -3.2,   0.00,   0.00,  992.5,   81.1, -999.0
18-01-2023, 00:09:36,    280,    1.0,   -3.1,   0.00,   0.00,  992.6,   81.1, -999.0
18-01-2023, 00:09:46,    307,    0.3,   -3.3,   0.00,   0.00,  992.5,   80.9, -999.0
18-01-2023, 00:09:55,    305,    0.1,   -3.2,   0.00,   0.00,  992.5,   81.0, -999.0
18-01-2023, 00:10:06,    306,    0.0,   -3.2,   0.00,   0.00,  992.5,   80.9, -999.0
18-01-2023, 00:10:16,    305,    0.1,   -3.3,   0.00,   0.00,  992.5,   80.9, -999.0
18-01-2023, 00:10:25,    305,    0.0,   -3.2,   0.00,   0.00,  992.4,   80.8, -999.0
18-01-2023, 00:10:35,    300,    0.1,   -3.2,   0.00,   0.00,  992.5,   81.0, -999.0
18-01-2023, 00:10:46,    272,    0.5,   -3.1,   0.00,   0.00,  992.5,   81.0, -999.0
18-01-2023, 00:10:56,    266,    0.9,   -3.2,   0.00,   0.00,  992.5,   81.0, -999.0
18-01-2023, 00:11:05,    252,    1.0,   -3.2,   0.00,   0.00,  992.6,   81.0, -999.0
18-01-2023, 00:11:16,    285,    0.4,   -3.2,   0.00,   0.00,  992.5,   80.9, -999.0
18-01-2023, 00:11:26,    285,    1.0,   -3.1,   0.00,   0.00,  992.5,   81.0, -999.0
18-01-2023, 00:11:35,    300,    0.9,   -3.2,   0.00,   0.00,  992.5,   80.9, -999.0
18-01-2023, 00:11:45,    269,    0.2,   -3.1,   0.00,   0.00,  992.5,   81.0, -999.0
18-01-2023, 00:11:56,    265,    0.2,   -3.1,   0.00,   0.00,  992.5,   80.8, -999.0
18-01-2023, 00:12:06,    266,    0.0,   -3.2,   0.00,   0.00,  992.4,   80.7, -999.0
18-01-2023, 00:12:15,    255,    0.1,   -3.1,   0.00,   0.00,  992.5,   80.7, -999.0
18-01-2023, 00:12:25,    254,    0.0,   -3.2,   0.00,   0.00,  992.4,   80.7, -999.0
18-01-2023, 00:12:36,    251,    0.5,   -3.2,   0.00,   0.00,  992.5,   80.8, -999.0
18-01-2023, 00:12:45,    243,    0.4,   -3.1,   0.00,   0.00,  992.5,   81.0, -999.0
18-01-2023, 00:12:55,    241,    0.3,   -3.1,   0.00,   0.00,  992.5,   80.9, -999.0
18-01-2023, 00:13:05,    242,    0.0,   -3.2,   0.00,   0.00,  992.4,   80.8, -999.0
18-01-2023, 00:13:15,    242,    0.0,   -3.1,   0.00,   0.00,  992.4,   80.8, -999.0
18-01-2023, 00:13:25,    242,    0.0,   -3.2,   0.00,   0.00,  992.4,   80.7, -999.0
18-01-2023, 00:13:35,    243,    0.0,   -3.2,   0.00,   0.00,  992.4,   80.7, -999.0
18-01-2023, 00:13:45,    301,    0.0,   -3.2,   0.00,   0.00,  992.4,   80.6, -999.0
18-01-2023, 00:13:55,    301,    0.4,   -3.1,   0.00,   0.00,  992.4,   80.7, -999.0
18-01-2023, 00:14:05,    301,    0.0,   -3.1,   0.00,   0.00,  992.3,   80.5, -999.0
18-01-2023, 00:14:15,    300,    0.0,   -3.1,   0.00,   0.00,  992.4,   80.5, -999.0
18-01-2023, 00:14:25,    301,    0.0,   -3.2,   0.00,   0.00,  992.3,   80.4, -999.0
18-01-2023, 00:14:35,    301,    0.0,   -3.2,   0.00,   0.00,  992.3,   80.4, -999.0
18-01-2023, 00:14:45,    301,    0.0,   -3.2,   0.00,   0.00,  992.3,   80.3, -999.0
18-01-2023, 00:14:55,    301,    0.0,   -3.2,   0.00,   0.00,  992.4,   80.4, -999.0
18-01-2023, 00:15:05,    298,    0.0,   -3.2,   0.00,   0.00,  992.3,   80.3, -999.0
18-01-2023, 00:15:15,    272,    0.4,   -3.2,   0.00,   0.00,  992.5,   80.7, -999.0
18-01-2023, 00:15:25,    261,    1.0,   -3.1,   0.00,   0.00,  992.5,   80.7, -999.0
18-01-2023, 00:15:35,    255,    2.4,   -3.1,   0.00,   0.00,  992.5,   80.7, -999.0
18-01-2023, 00:15:45,    279,    1.0,   -3.1,   0.00,   0.00,  992.5,   80.8, -999.0
18-01-2023, 00:15:55,    280,    0.3,   -3.1,   0.00,   0.00,  992.4,   80.7, -999.0
18-01-2023, 00:16:05,    262,    0.2,   -3.2,   0.00,   0.00,  992.5,   80.7, -999.0
18-01-2023, 00:16:15,    262,    0.5,   -3.1,   0.00,   0.00,  992.5,   80.7, -999.0
18-01-2023, 00:16:25,    236,    0.0,   -3.2,   0.00,   0.00,  992.4,   80.5, -999.0
18-01-2023, 00:16:35,    242,    1.0,   -3.1,   0.00,   0.00,  992.4,   80.9, -999.0
18-01-2023, 00:16:45,    261,    0.5,   -3.1,   0.00,   0.00,  992.4,   80.8, -999.0
18-01-2023, 00:16:55,    263,    0.3,   -3.1,   0.00,   0.00,  992.5,   80.8, -999.0
18-01-2023, 00:17:05,    263,    0.0,   -3.1,   0.00,   0.00,  992.4,   80.6, -999.0
18-01-2023, 00:17:15,    263,    0.0,   -3.1,   0.00,   0.00,  992.3,   80.6, -999.0
18-01-2023, 00:17:25,    317,    0.0,   -3.2,   0.00,   0.00,  992.3,   80.5, -999.0
18-01-2023, 00:17:35,    318,    0.1,   -3.1,   0.00,   0.00,  992.4,   80.8, -999.0
18-01-2023, 00:17:45,    318,    0.0,   -3.2,   0.00,   0.00,  992.3,   80.6, -999.0
18-01-2023, 00:17:55,    250,    0.2,   -3.2,   0.00,   0.00,  992.3,   80.6, -999.0
18-01-2023, 00:18:05,    268,    0.2,   -3.1,   0.00,   0.00,  992.4,   80.7, -999.0
18-01-2023, 00:18:15,    273,    2.4,   -3.0,   0.00,   0.00,  992.4,   80.9, -999.0
18-01-2023, 00:18:25,    265,    0.6,   -3.1,   0.00,   0.00,  992.4,   80.9, -999.0
18-01-2023, 00:18:35,    264,    0.1,   -3.2,   0.00,   0.00,  992.3,   80.7, -999.0
18-01-2023, 00:18:45,    264,    0.0,   -3.2,   0.00,   0.00,  992.3,   80.4, -999.0
18-01-2023, 00:18:55,    295,    0.0,   -3.2,   0.00,   0.00,  992.3,   80.7, -999.0
18-01-2023, 00:19:05,    296,    0.0,   -3.2,   0.00,   0.00,  992.3,   80.6, -999.0
18-01-2023, 00:19:15,    296,    0.0,   -3.2,   0.00,   0.00,  992.3,   80.6, -999.0
18-01-2023, 00:19:25,    296,    0.0,   -3.2,   0.00,   0.00,  992.3,   80.6, -999.0
18-01-2023, 00:19:35,    257,    0.3,   -3.2,   0.00,   0.00,  992.3,   80.8, -999.0
18-01-2023, 00:19:44,    249,    1.2,   -3.1,   0.00,   0.00,  992.4,   81.0, -999.0
18-01-2023, 00:19:55,    245,    0.7,   -3.1,   0.00,   0.00,  992.4,   81.0, -999.0
18-01-2023, 00:20:05,    260,    0.0,   -3.1,   0.00,   0.00,  992.3,   80.9, -999.0
18-01-2023, 00:20:15,    260,    0.0,   -3.3,   0.00,   0.00,  992.3,   80.7, -999.0
18-01-2023, 00:20:24,    260,    0.0,   -3.3,   0.00,   0.00,  992.3,   80.8, -999.0
18-01-2023, 00:20:35,    263,    0.1,   -3.2,   0.00,   0.00,  992.4,   80.9, -999.0
18-01-2023, 00:20:45,    263,    0.6,   -3.1,   0.00,   0.00,  992.4,   80.9, -999.0
18-01-2023, 00:20:54,    264,    1.2,   -3.1,   0.00,   0.00,  992.5,   81.0, -999.0
18-01-2023, 00:21:04,    277,    0.6,   -3.1,   0.00,   0.00,  992.4,   81.0, -999.0
18-01-2023, 00:21:15,    259,    1.8,   -3.1,   0.00,   0.00,  992.4,   80.9, -999.0
18-01-2023, 00:21:24,    266,    0.9,   -3.1,   0.00,   0.00,  992.4,   81.0, -999.0
18-01-2023, 00:21:34,    287,    1.3,   -3.2,   0.00,   0.00,  992.5,   81.1, -999.0
18-01-2023, 00:21:44,    286,    0.1,   -3.2,   0.00,   0.00,  992.4,   80.9, -999.0
18-01-2023, 00:21:55,    287,    0.2,   -3.2,   0.00,   0.00,  992.5,   81.1, -999.0
18-01-2023, 00:22:04,    287,    0.0,   -3.2,   0.00,   0.00,  992.4,   80.8, -999.0
18-01-2023, 00:22:14,    286,    0.0,   -3.2,   0.00,   0.00,  992.3,   81.0, -999.0
18-01-2023, 00:22:24,    285,    0.0,   -3.2,   0.00,   0.00,  992.3,   81.0, -999.0
18-01-2023, 00:22:35,    274,    0.0,   -3.2,   0.00,   0.00,  992.3,   80.8, -999.0
18-01-2023, 00:22:44,    272,    1.0,   -3.1,   0.00,   0.00,  992.5,   81.3, -999.0
18-01-2023, 00:22:54,    255,    0.4,   -3.0,   0.00,   0.00,  992.5,   81.3, -999.0
18-01-2023, 00:23:04,    256,    0.0,   -3.1,   0.00,   0.00,  992.4,   80.9, -999.0
18-01-2023, 00:23:14,    256,    0.0,   -3.1,   0.00,   0.00,  992.3,   80.9, -999.0
18-01-2023, 00:23:24,    263,    0.2,   -3.1,   0.00,   0.00,  992.4,   81.1, -999.0
18-01-2023, 00:23:34,    264,    0.1,   -3.1,   0.00,   0.00,  992.4,   81.1, -999.0
18-01-2023, 00:23:44,    265,    0.3,   -3.1,   0.00,   0.00,  992.4,   81.2, -999.0
18-01-2023, 00:23:54,    265,    0.2,   -3.2,   0.00,   0.00,  992.4,   81.1, -999.0
18-01-2023, 00:24:04,    266,    0.0,   -3.2,   0.00,   0.00,  992.3,   80.8, -999.0
18-01-2023, 00:24:14,    265,    0.0,   -3.2,   0.00,   0.00,  992.3,   80.7, -999.0
18-01-2023, 00:24:24,    265,    0.0,   -3.2,   0.00,   0.00,  992.3,   80.6, -999.0
18-01-2023, 00:24:34,    265,    0.0,   -3.2,   0.00,   0.00,  992.3,   80.6, -999.0
18-01-2023, 00:24:44,    265,    0.0,   -3.2,   0.00,   0.00,  992.3,   80.6, -999.0
18-01-2023, 00:24:54,    264,    0.0,   -3.2,   0.00,   0.00,  992.3,   80.6, -999.0
18-01-2023, 00:25:04,    266,    0.0,   -3.2,   0.00,   0.00,  992.3,   80.6, -999.0
18-01-2023, 00:25:14,    264,    0.0,   -3.2,   0.00,   0.00,  992.3,   80.6, -999.0
18-01-2023, 00:25:24,    259,    0.2,   -3.2,   0.00,   0.00,  992.4,   81.0, -999.0
18-01-2023, 00:25:34,    255,    0.1,   -3.1,   0.00,   0.00,  992.4,   80.8, -999.0
18-01-2023, 00:25:44,    258,    0.1,   -3.2,   0.00,   0.00,  992.4,   80.9, -999.0
18-01-2023, 00:25:54,    258,    0.1,   -3.1,   0.00,   0.00,  992.4,   80.9, -999.0
18-01-2023, 00:26:04,    258,    0.0,   -3.2,   0.00,   0.00,  992.3,   80.8, -999.0
18-01-2023, 00:26:14,    258,    0.0,   -3.2,   0.00,   0.00,  992.3,   80.8, -999.0
18-01-2023, 00:26:24,    266,    0.2,   -3.2,   0.00,   0.00,  992.4,   80.9, -999.0
18-01-2023, 00:26:34,    269,    1.0,   -3.1,   0.00,   0.00,  992.5,   81.3, -999.0
18-01-2023, 00:26:44,    250,    0.0,   -3.2,   0.00,   0.00,  992.3,   80.9, -999.0
18-01-2023, 00:26:54,    259,    0.0,   -3.2,   0.00,   0.00,  992.3,   81.1, -999.0
18-01-2023, 00:27:04,    260,    0.2,   -3.1,   0.00,   0.00,  992.3,   81.1, -999.0
18-01-2023, 00:27:14,    260,    0.0,   -3.2,   0.00,   0.00,  992.3,   80.9, -999.0
18-01-2023, 00:27:24,    259,    0.0,   -3.2,   0.00,   0.00,  992.3,   81.0, -999.0
18-01-2023, 00:27:34,    260,    0.0,   -3.3,   0.00,   0.00,  992.3,   80.9, -999.0
18-01-2023, 00:27:44,    260,    0.0,   -3.2,   0.00,   0.00,  992.3,   80.9, -999.0
18-01-2023, 00:27:54,    260,    0.0,   -3.2,   0.00,   0.00,  992.3,   80.9, -999.0
18-01-2023, 00:28:04,    260,    0.0,   -3.3,   0.00,   0.00,  992.3,   80.9, -999.0
18-01-2023, 00:28:14,    259,    0.0,   -3.3,   0.00,   0.00,  992.3,   80.9, -999.0
18-01-2023, 00:28:24,    261,    0.0,   -3.3,   0.00,   0.00,  992.3,   80.9, -999.0
18-01-2023, 00:28:34,    260,    0.0,   -3.3,   0.00,   0.00,  992.3,   80.8, -999.0
18-01-2023, 00:28:44,    277,    0.1,   -3.3,   0.00,   0.00,  992.3,   81.0, -999.0
18-01-2023, 00:28:53,    276,    0.1,   -3.2,   0.00,   0.00,  992.4,   81.2, -999.0
18-01-2023, 00:29:04,    275,    0.0,   -3.2,   0.00,   0.00,  992.3,   81.0, -999.0
18-01-2023, 00:29:14,    275,    0.0,   -3.3,   0.00,   0.00,  992.3,   81.0, -999.0
18-01-2023, 00:29:23,    276,    0.0,   -3.4,   0.00,   0.00,  992.3,   80.9, -999.0
18-01-2023, 00:29:34,    294,    0.1,   -3.3,   0.00,   0.00,  992.3,   81.1, -999.0
18-01-2023, 00:29:44,    294,    0.0,   -3.2,   0.00,   0.00,  992.3,   81.0, -999.0
18-01-2023, 00:29:54,    294,    0.1,   -3.2,   0.00,   0.00,  992.3,   81.1, -999.0
18-01-2023, 00:30:03,    294,    0.0,   -3.3,   0.00,   0.00,  992.3,   81.0, -999.0
18-01-2023, 00:30:14,    247,    0.0,   -3.3,   0.00,   0.00,  992.3,   81.1, -999.0
18-01-2023, 00:30:24,    247,    0.0,   -3.2,   0.00,   0.00,  992.4,   81.1, -999.0
18-01-2023, 00:30:33,    247,    0.2,   -3.2,   0.00,   0.00,  992.3,   81.1, -999.0
18-01-2023, 00:30:43,    248,    0.1,   -3.2,   0.00,   0.00,  992.4,   81.2, -999.0
18-01-2023, 00:30:54,    250,    0.2,   -3.2,   0.00,   0.00,  992.3,   81.1, -999.0
18-01-2023, 00:31:04,    250,    0.0,   -3.3,   0.00,   0.00,  992.3,   81.1, -999.0
18-01-2023, 00:31:13,    250,    0.0,   -3.3,   0.00,   0.00,  992.3,   80.9, -999.0
18-01-2023, 00:31:23,    250,    0.0,   -3.3,   0.00,   0.00,  992.3,   81.0, -999.0
18-01-2023, 00:31:34,    263,    0.3,   -3.3,   0.00,   0.00,  992.4,   81.2, -999.0
18-01-2023, 00:31:43,    260,    0.9,   -3.2,   0.00,   0.00,  992.4,   81.4, -999.0
18-01-2023, 00:31:53,    255,    1.0,   -3.3,   0.00,   0.00,  992.4,   81.4, -999.0
18-01-2023, 00:32:03,    259,    0.6,   -3.2,   0.00,   0.00,  992.4,   81.4, -999.0
18-01-2023, 00:32:14,    258,    0.2,   -3.3,   0.00,   0.00,  992.3,   81.2, -999.0
18-01-2023, 00:32:23,    259,    0.0,   -3.3,   0.00,   0.00,  992.3,   81.1, -999.0
18-01-2023, 00:32:33,    259,    0.0,   -3.3,   0.00,   0.00,  992.3,   81.2, -999.0
18-01-2023, 00:32:43,    257,    1.1,   -3.2,   0.00,   0.00,  992.4,   81.4, -999.0
18-01-2023, 00:32:53,    220,    0.5,   -3.4,   0.00,   0.00,  992.4,   81.4, -999.0
18-01-2023, 00:33:03,    220,    0.0,   -3.3,   0.00,   0.00,  992.3,   81.3, -999.0
18-01-2023, 00:33:13,    251,    0.0,   -3.3,   0.00,   0.00,  992.3,   81.3, -999.0
18-01-2023, 00:33:23,    251,    0.0,   -3.3,   0.00,   0.00,  992.3,   81.3, -999.0
18-01-2023, 00:33:33,    251,    0.0,   -3.3,   0.00,   0.00,  992.3,   81.3, -999.0
18-01-2023, 00:33:43,    269,    0.0,   -3.3,   0.00,   0.00,  992.3,   81.3, -999.0
18-01-2023, 00:33:53,    274,    0.0,   -3.3,   0.00,   0.00,  992.3,   81.3, -999.0
18-01-2023, 00:34:03,    269,    0.6,   -3.2,   0.00,   0.00,  992.4,   81.6, -999.0
18-01-2023, 00:34:13,    270,    0.4,   -3.3,   0.00,   0.00,  992.4,   81.4, -999.0
18-01-2023, 00:34:23,    273,    0.7,   -3.3,   0.00,   0.00,  992.4,   81.5, -999.0
18-01-2023, 00:34:33,    296,    0.8,   -3.3,   0.00,   0.00,  992.5,   81.5, -999.0
18-01-2023, 00:34:43,    295,    0.1,   -3.2,   0.00,   0.00,  992.4,   81.5, -999.0
18-01-2023, 00:34:53,    295,    0.0,   -3.3,   0.00,   0.00,  992.4,   81.2, -999.0
18-01-2023, 00:35:03,    282,    0.5,   -3.3,   0.00,   0.00,  992.5,   81.6, -999.0
18-01-2023, 00:35:13,    258,    1.0,   -3.2,   0.00,   0.00,  992.5,   81.6, -999.0
18-01-2023, 00:35:23,    255,    0.3,   -3.3,   0.00,   0.00,  992.5,   81.5, -999.0
18-01-2023, 00:35:33,    255,    0.8,   -3.2,   0.00,   0.00,  992.5,   81.6, -999.0
18-01-2023, 00:35:43,    253,    0.1,   -3.3,   0.00,   0.00,  992.5,   81.5, -999.0
18-01-2023, 00:35:53,    254,    0.0,   -3.3,   0.00,   0.00,  992.4,   81.3, -999.0
18-01-2023, 00:36:03,    254,    0.0,   -3.4,   0.00,   0.00,  992.4,   81.3, -999.0
18-01-2023, 00:36:13,    274,    0.0,   -3.3,   0.00,   0.00,  992.4,   81.3, -999.0
18-01-2023, 00:36:23,    272,    1.6,   -3.2,   0.00,   0.00,  992.6,   81.8, -999.0
18-01-2023, 00:36:33,    283,    1.1,   -3.3,   0.00,   0.00,  992.5,   81.9, -999.0
18-01-2023, 00:36:43,    270,    1.0,   -3.3,   0.00,   0.00,  992.5,   81.7, -999.0
18-01-2023, 00:36:53,    268,    0.5,   -3.2,   0.00,   0.00,  992.5,   81.8, -999.0
18-01-2023, 00:37:03,    239,    2.0,   -3.3,   0.00,   0.00,  992.5,   81.8, -999.0
18-01-2023, 00:37:13,    239,    1.3,   -3.4,   0.00,   0.00,  992.5,   81.8, -999.0
18-01-2023, 00:37:23,    243,    0.9,   -3.3,   0.00,   0.00,  992.5,   81.8, -999.0
18-01-2023, 00:37:33,    243,    0.0,   -3.4,   0.00,   0.00,  992.4,   81.5, -999.0
18-01-2023, 00:37:43,    248,    0.1,   -3.3,   0.00,   0.00,  992.4,   81.6, -999.0
18-01-2023, 00:37:53,    248,    0.0,   -3.4,   0.00,   0.00,  992.4,   81.5, -999.0
18-01-2023, 00:38:03,    248,    0.0,   -3.3,   0.00,   0.00,  992.4,   81.4, -999.0
18-01-2023, 00:38:13,    248,    0.0,   -3.3,   0.00,   0.00,  992.4,   81.4, -999.0
18-01-2023, 00:38:23,    248,    0.0,   -3.3,   0.00,   0.00,  992.4,   81.5, -999.0
18-01-2023, 00:38:33,    248,    0.0,   -3.3,   0.00,   0.00,  992.4,   81.4, -999.0
18-01-2023, 00:38:43,    248,    0.0,   -3.3,   0.00,   0.00,  992.4,   81.5, -999.0
18-01-2023, 00:38:53,    248,    0.0,   -3.3,   0.00,   0.00,  992.4,   81.5, -999.0
18-01-2023, 00:39:02,    248,    0.0,   -3.2,   0.00,   0.00,  992.4,   81.5, -999.0
18-01-2023, 00:39:13,    248,    0.0,   -3.4,   0.00,   0.00,  992.4,   81.5, -999.0
18-01-2023, 00:39:23,    248,    0.0,   -3.3,   0.00,   0.00,  992.4,   81.4, -999.0
18-01-2023, 00:39:33,    249,    0.0,   -3.3,   0.00,   0.00,  992.4,   81.4, -999.0
18-01-2023, 00:39:42,    248,    0.0,   -3.3,   0.00,   0.00,  992.4,   81.5, -999.0
18-01-2023, 00:39:53,    249,    0.0,   -3.4,   0.00,   0.00,  992.4,   81.4, -999.0
18-01-2023, 00:40:03,    248,    0.0,   -3.4,   0.00,   0.00,  992.3,   81.4, -999.0
18-01-2023, 00:40:12,    248,    0.0,   -3.4,   0.00,   0.00,  992.4,   81.4, -999.0
18-01-2023, 00:40:22,    248,    0.0,   -3.3,   0.00,   0.00,  992.3,   81.5, -999.0
18-01-2023, 00:40:33,    249,    0.0,   -3.4,   0.00,   0.00,  992.3,   81.6, -999.0
18-01-2023, 00:40:43,    248,    0.0,   -3.3,   0.00,   0.00,  992.4,   81.6, -999.0
18-01-2023, 00:40:52,    249,    0.0,   -3.3,   0.00,   0.00,  992.4,   81.6, -999.0
18-01-2023, 00:41:02,    248,    0.0,   -3.3,   0.00,   0.00,  992.4,   81.8, -999.0
18-01-2023, 00:41:13,    248,    0.0,   -3.3,   0.00,   0.00,  992.4,   81.8, -999.0
18-01-2023, 00:41:22,    249,    0.0,   -3.3,   0.00,   0.00,  992.3,   81.8, -999.0
18-01-2023, 00:41:32,    249,    0.0,   -3.3,   0.00,   0.00,  992.3,   81.8, -999.0
18-01-2023, 00:41:42,    251,    0.0,   -3.3,   0.00,   0.00,  992.4,   81.7, -999.0
18-01-2023, 00:41:53,    251,    0.0,   -3.3,   0.00,   0.00,  992.4,   81.6, -999.0
18-01-2023, 00:42:02,    251,    0.0,   -3.3,   0.00,   0.00,  992.4,   81.7, -999.0
18-01-2023, 00:42:12,    251,    0.0,   -3.4,   0.00,   0.00,  992.4,   81.6, -999.0
18-01-2023, 00:42:23,    251,    0.0,   -3.4,   0.00,   0.00,  992.3,   81.6, -999.0
18-01-2023, 00:42:32,    251,    0.0,   -3.4,   0.00,   0.00,  992.3,   81.6, -999.0
18-01-2023, 00:42:42,    256,    0.0,   -3.3,   0.00,   0.00,  992.3,   81.7, -999.0
18-01-2023, 00:42:52,    258,    0.0,   -3.3,   0.00,   0.00,  992.3,   81.7, -999.0
18-01-2023, 00:43:02,    258,    0.0,   -3.4,   0.00,   0.00,  992.3,   81.7, -999.0
18-01-2023, 00:43:12,    258,    0.0,   -3.4,   0.00,   0.00,  992.3,   81.6, -999.0
18-01-2023, 00:43:22,    258,    0.0,   -3.4,   0.00,   0.00,  992.3,   81.6, -999.0
18-01-2023, 00:43:32,    258,    0.0,   -3.4,   0.00,   0.00,  992.3,   81.6, -999.0
18-01-2023, 00:43:42,    257,    0.0,   -3.4,   0.00,   0.00,  992.4,   81.9, -999.0
18-01-2023, 00:43:52,    251,    0.2,   -3.3,   0.00,   0.00,  992.5,   82.1, -999.0
18-01-2023, 00:44:02,    251,    0.0,   -3.4,   0.00,   0.00,  992.4,   81.9, -999.0
18-01-2023, 00:44:12,    252,    0.0,   -3.4,   0.00,   0.00,  992.4,   81.8, -999.0
18-01-2023, 00:44:22,    252,    0.0,   -3.3,   0.00,   0.00,  992.4,   81.9, -999.0
18-01-2023, 00:44:32,    252,    0.0,   -3.3,   0.00,   0.00,  992.4,   82.0, -999.0
18-01-2023, 00:44:42,    271,    0.3,   -3.4,   0.00,   0.00,  992.4,   81.9, -999.0
18-01-2023, 00:44:52,    268,    1.6,   -3.3,   0.00,   0.00,  992.5,   82.3, -999.0
18-01-2023, 00:45:02,    268,    0.4,   -3.3,   0.00,   0.00,  992.5,   82.3, -999.0
18-01-2023, 00:45:12,    266,    0.4,   -3.2,   0.00,   0.00,  992.5,   82.2, -999.0
18-01-2023, 00:45:22,    266,    0.0,   -3.3,   0.00,   0.00,  992.4,   82.0, -999.0
18-01-2023, 00:45:32,    266,    0.0,   -3.3,   0.00,   0.00,  992.3,   82.0, -999.0
18-01-2023, 00:45:42,    266,    0.0,   -3.3,   0.00,   0.00,  992.4,   82.0, -999.0
18-01-2023, 00:45:52,    269,    0.1,   -3.3,   0.00,   0.00,  992.4,   82.1, -999.0
18-01-2023, 00:46:02,    250,    1.2,   -3.3,   0.00,   0.00,  992.5,   82.4, -999.0
18-01-2023, 00:46:12,    250,    0.1,   -3.3,   0.00,   0.00,  992.4,   82.0, -999.0
18-01-2023, 00:46:22,    251,    0.0,   -3.4,   0.00,   0.00,  992.3,   82.0, -999.0
18-01-2023, 00:46:32,    252,    0.4,   -3.3,   0.00,   0.00,  992.4,   82.2, -999.0
18-01-2023, 00:46:42,    255,    0.3,   -3.3,   0.00,   0.00,  992.5,   82.3, -999.0
18-01-2023, 00:46:52,    256,    0.1,   -3.3,   0.00,   0.00,  992.4,   82.2, -999.0